timestamp,wind_dir_avg,wind_spd_max_dir,wind_spd_avg,wind_spd_gust,battery_voltage,lat,long
2018-12-12 00:00:00+00:00,325.0,326.0,3.39,3.89,,47.59359,-54.27349
2018-12-12 00:10:00+00:00,306.0,310.0,4.0,4.53,,47.59359,-54.27349
2018-12-12 00:20:00+00:00,284.0,284.0,4.74,5.29,,47.59359,-54.27349
2018-12-12 00:30:00+00:00,292.0,302.0,4.53,5.67,,47.59359,-54.27349
2018-12-12 00:40:00+00:00,307.0,306.0,5.0,5.46,,47.59359,-54.27349
2018-12-12 00:50:00+00:00,300.0,297.0,4.68,5.17,,47.59359,-54.27349
2018-12-12 01:00:00+00:00,307.0,300.0,3.93,4.69,,47.59359,-54.27349
2018-12-12 01:10:00+00:00,313.0,303.0,2.94,3.43,,47.59359,-54.27349
2018-12-12 01:20:00+00:00,308.0,311.0,3.19,3.55,,47.59359,-54.27349
2018-12-12 01:30:00+00:00,310.0,311.0,2.62,3.07,,47.59359,-54.27349
2018-12-12 01:40:00+00:00,338.0,342.0,2.11,2.71,,47.59359,-54.27349
2018-12-12 01:50:00+00:00,292.0,295.0,2.08,3.05,,47.59359,-54.27349
2018-12-12 02:00:00+00:00,273.0,271.0,1.65,2.1,,47.59359,-54.27349
2018-12-12 02:10:00+00:00,287.0,290.0,0.74,0.95,,47.59359,-54.27349
2018-12-12 02:20:00+00:00,297.0,305.0,0.19,0.34,,47.59359,-54.27349
2018-12-12 02:30:00+00:00,262.0,257.0,0.81,1.18,,47.59359,-54.27349
2018-12-12 02:40:00+00:00,217.0,220.0,2.11,2.84,,47.59359,-54.27349
2018-12-12 02:50:00+00:00,208.0,201.0,0.96,1.29,,47.59359,-54.27349
2018-12-12 03:00:00+00:00,220.0,221.0,1.21,1.65,,47.59359,-54.27349
2018-12-12 03:10:00+00:00,212.0,175.0,0.37,0.65,,47.59359,-54.27349
2018-12-12 03:20:00+00:00,206.0,197.0,2.16,3.05,,47.59359,-54.27349
2018-12-12 03:30:00+00:00,35.0,38.0,1.72,2.14,,47.59359,-54.27349
2018-12-12 03:40:00+00:00,29.0,28.0,2.23,2.73,,47.59359,-54.27349
2018-12-12 03:50:00+00:00,67.0,75.0,2.52,3.18,,47.59359,-54.27349
2018-12-12 04:00:00+00:00,67.0,54.0,2.09,2.72,,47.59359,-54.27349
2018-12-12 04:10:00+00:00,43.0,37.0,1.71,2.2,,47.59359,-54.27349
2018-12-12 04:20:00+00:00,45.0,52.0,2.25,2.59,,47.59359,-54.27349
2018-12-12 04:30:00+00:00,69.0,70.0,1.91,2.47,,47.59359,-54.27349
2018-12-12 04:40:00+00:00,93.0,92.0,1.73,2.26,,47.59359,-54.27349
2018-12-12 04:50:00+00:00,100.0,100.0,1.55,2.21,,47.59359,-54.27349
2018-12-12 05:00:00+00:00,77.0,69.0,1.13,1.61,,47.59359,-54.27349
2018-12-12 05:10:00+00:00,12.0,24.0,2.55,3.12,,47.59359,-54.27349
2018-12-12 05:20:00+00:00,97.0,96.0,1.69,2.13,,47.59359,-54.27349
2018-12-12 05:30:00+00:00,147.0,164.0,1.79,2.26,,47.59359,-54.27349
2018-12-12 05:40:00+00:00,169.0,173.0,1.17,1.51,,47.59359,-54.27349
2018-12-12 05:50:00+00:00,359.0,1.0,3.32,4.84,,47.59359,-54.27349
2018-12-12 06:00:00+00:00,0.0,0.0,3.58,3.88,,47.59359,-54.27349
2018-12-12 06:10:00+00:00,359.0,357.0,3.32,3.78,,47.59359,-54.27349
2018-12-12 06:20:00+00:00,357.0,1.0,3.91,4.41,,47.59359,-54.27349
2018-12-12 06:30:00+00:00,33.0,33.0,3.61,3.97,,47.59359,-54.27349
2018-12-12 06:40:00+00:00,46.0,40.0,2.73,3.19,,47.59359,-54.27349
2018-12-12 06:50:00+00:00,28.0,29.0,3.29,3.94,,47.59359,-54.27349
2018-12-12 07:00:00+00:00,33.0,35.0,3.83,4.32,,47.59359,-54.27349
2018-12-12 07:10:00+00:00,19.0,29.0,2.8,3.18,,47.59359,-54.27349
2018-12-12 07:20:00+00:00,57.0,55.0,1.93,2.4,,47.59359,-54.27349
2018-12-12 07:30:00+00:00,44.0,39.0,2.76,3.66,,47.59359,-54.27349
2018-12-12 07:40:00+00:00,48.0,51.0,2.23,2.48,,47.59359,-54.27349
2018-12-12 07:50:00+00:00,98.0,105.0,1.34,1.76,,47.59359,-54.27349
2018-12-12 08:00:00+00:00,94.0,110.0,1.73,2.36,,47.59359,-54.27349
2018-12-12 08:10:00+00:00,150.0,146.0,2.7,4.16,,47.59359,-54.27349
2018-12-12 08:20:00+00:00,180.0,191.0,4.96,7.98,,47.59359,-54.27349
2018-12-12 08:30:00+00:00,193.0,196.0,7.24,8.13,,47.59359,-54.27349
2018-12-12 08:40:00+00:00,199.0,198.0,5.93,6.73,,47.59359,-54.27349
2018-12-12 08:50:00+00:00,206.0,204.0,5.19,6.2,,47.59359,-54.27349
2018-12-12 09:00:00+00:00,179.0,181.0,5.56,5.88,,47.59359,-54.27349
2018-12-12 09:10:00+00:00,176.0,174.0,6.98,7.72,,47.59359,-54.27349
2018-12-12 09:20:00+00:00,181.0,184.0,7.47,8.06,,47.59359,-54.27349
2018-12-12 09:30:00+00:00,180.0,181.0,6.67,7.68,,47.59359,-54.27349
2018-12-12 09:40:00+00:00,170.0,170.0,5.74,6.56,,47.59359,-54.27349
2018-12-12 09:50:00+00:00,166.0,158.0,5.85,7.11,,47.59359,-54.27349
2018-12-12 10:00:00+00:00,176.0,175.0,7.17,8.46,,47.59359,-54.27349
2018-12-12 10:10:00+00:00,172.0,168.0,8.08,8.82,,47.59359,-54.27349
2018-12-12 10:20:00+00:00,180.0,184.0,7.39,8.47,,47.59359,-54.27349
2018-12-12 10:30:00+00:00,177.0,181.0,8.55,9.31,,47.59359,-54.27349
2018-12-12 10:40:00+00:00,177.0,175.0,8.13,8.69,,47.59359,-54.27349
2018-12-12 10:50:00+00:00,169.0,169.0,6.84,7.85,,47.59359,-54.27349
2018-12-12 11:00:00+00:00,162.0,162.0,6.95,7.87,,47.59359,-54.27349
2018-12-12 11:10:00+00:00,162.0,166.0,5.67,6.4,,47.59359,-54.27349
2018-12-12 11:20:00+00:00,166.0,166.0,5.75,6.4,,47.59359,-54.27349
2018-12-12 11:30:00+00:00,159.0,156.0,6.96,7.69,,47.59359,-54.27349
2018-12-12 11:40:00+00:00,154.0,155.0,5.12,6.07,,47.59359,-54.27349
2018-12-12 11:50:00+00:00,145.0,146.0,5.45,6.38,,47.59359,-54.27349
2018-12-12 12:00:00+00:00,145.0,144.0,6.52,7.26,,47.59359,-54.27349
2018-12-12 12:10:00+00:00,137.0,133.0,7.38,8.22,,47.59359,-54.27349
2018-12-12 12:20:00+00:00,146.0,134.0,6.32,7.73,,47.59359,-54.27349
2018-12-12 12:30:00+00:00,146.0,134.0,7.6,8.43,,47.59359,-54.27349
2018-12-12 12:40:00+00:00,141.0,139.0,6.98,8.29,,47.59359,-54.27349
2018-12-12 12:50:00+00:00,133.0,128.0,7.1,8.64,,47.59359,-54.27349
2018-12-12 13:00:00+00:00,136.0,134.0,6.46,7.87,,47.59359,-54.27349
2018-12-12 13:10:00+00:00,142.0,143.0,6.36,7.54,,47.59359,-54.27349
2018-12-12 13:20:00+00:00,135.0,133.0,7.45,8.5,,47.59359,-54.27349
2018-12-12 13:30:00+00:00,142.0,131.0,5.8,7.77,,47.59359,-54.27349
2018-12-12 13:40:00+00:00,139.0,134.0,6.23,8.1,,47.59359,-54.27349
2018-12-12 13:50:00+00:00,133.0,133.0,6.92,7.68,,47.59359,-54.27349
2018-12-12 14:00:00+00:00,134.0,136.0,7.09,7.89,,47.59359,-54.27349
2018-12-12 14:10:00+00:00,128.0,130.0,5.19,7.81,,47.59359,-54.27349
2018-12-12 14:20:00+00:00,135.0,140.0,6.97,7.78,,47.59359,-54.27349
2018-12-12 14:30:00+00:00,122.0,130.0,4.15,6.4,,47.59359,-54.27349
2018-12-12 14:40:00+00:00,127.0,114.0,5.13,9.03,,47.59359,-54.27349
2018-12-12 14:50:00+00:00,124.0,127.0,4.56,7.35,,47.59359,-54.27349
2018-12-12 15:00:00+00:00,120.0,104.0,4.12,7.18,,47.59359,-54.27349
2018-12-12 15:10:00+00:00,122.0,136.0,4.3,7.29,,47.59359,-54.27349
2018-12-12 15:20:00+00:00,122.0,130.0,4.16,6.24,,47.59359,-54.27349
2018-12-12 15:30:00+00:00,125.0,131.0,5.41,8.17,,47.59359,-54.27349
2018-12-12 15:40:00+00:00,112.0,116.0,5.05,7.43,,47.59359,-54.27349
2018-12-12 15:50:00+00:00,108.0,119.0,3.57,6.67,,47.59359,-54.27349
2018-12-12 16:00:00+00:00,95.0,76.0,4.5,7.38,,47.59359,-54.27349
2018-12-12 16:10:00+00:00,85.0,93.0,5.14,7.31,,47.59359,-54.27349
2018-12-12 16:20:00+00:00,90.0,96.0,4.84,6.51,,47.59359,-54.27349
2018-12-12 16:30:00+00:00,89.0,94.0,6.0,8.24,,47.59359,-54.27349
2018-12-12 16:40:00+00:00,89.0,85.0,7.37,9.21,,47.59359,-54.27349
2018-12-12 16:50:00+00:00,92.0,86.0,6.54,8.76,,47.59359,-54.27349
2018-12-12 17:00:00+00:00,86.0,79.0,7.0,8.71,,47.59359,-54.27349
2018-12-12 17:10:00+00:00,84.0,83.0,8.53,10.26,,47.59359,-54.27349
2018-12-12 17:20:00+00:00,81.0,85.0,8.38,9.53,,47.59359,-54.27349
2018-12-12 17:30:00+00:00,85.0,86.0,8.37,9.44,,47.59359,-54.27349
2018-12-12 17:40:00+00:00,83.0,84.0,12.94,16.08,,47.59359,-54.27349
2018-12-12 17:50:00+00:00,82.0,75.0,9.33,13.0,,47.59359,-54.27349
2018-12-12 18:00:00+00:00,80.0,85.0,9.22,14.14,,47.59359,-54.27349
2018-12-12 18:10:00+00:00,84.0,83.0,10.05,14.18,,47.59359,-54.27349
2018-12-12 18:20:00+00:00,85.0,82.0,10.7,15.75,,47.59359,-54.27349
2018-12-12 18:30:00+00:00,68.0,74.0,12.06,16.26,,47.59359,-54.27349
2018-12-12 18:40:00+00:00,73.0,76.0,12.94,15.94,,47.59359,-54.27349
2018-12-12 18:50:00+00:00,75.0,74.0,11.14,15.74,,47.59359,-54.27349
2018-12-12 19:00:00+00:00,81.0,77.0,14.07,16.35,,47.59359,-54.27349
2018-12-12 19:10:00+00:00,79.0,78.0,14.25,16.01,,47.59359,-54.27349
2018-12-12 19:20:00+00:00,83.0,83.0,14.08,15.84,,47.59359,-54.27349
2018-12-12 19:30:00+00:00,76.0,79.0,14.65,16.2,,47.59359,-54.27349
2018-12-12 19:40:00+00:00,82.0,80.0,13.42,15.77,,47.59359,-54.27349
2018-12-12 19:50:00+00:00,78.0,77.0,14.51,16.43,,47.59359,-54.27349
2018-12-12 20:00:00+00:00,74.0,72.0,14.83,16.69,,47.59359,-54.27349
2018-12-12 20:10:00+00:00,66.0,66.0,14.95,16.18,,47.59359,-54.27349
2018-12-12 20:20:00+00:00,57.0,58.0,15.71,16.98,,47.59359,-54.27349
2018-12-12 20:30:00+00:00,68.0,72.0,13.37,16.48,,47.59359,-54.27349
2018-12-12 20:40:00+00:00,53.0,56.0,12.61,16.98,,47.59359,-54.27349
2018-12-12 20:50:00+00:00,62.0,60.0,14.67,16.6,,47.59359,-54.27349
2018-12-12 21:00:00+00:00,62.0,59.0,15.37,17.36,,47.59359,-54.27349
2018-12-12 21:10:00+00:00,58.0,57.0,15.77,17.85,,47.59359,-54.27349
2018-12-12 21:20:00+00:00,57.0,61.0,14.28,16.58,,47.59359,-54.27349
2018-12-12 21:30:00+00:00,60.0,61.0,15.4,16.62,,47.59359,-54.27349
2018-12-12 21:40:00+00:00,53.0,57.0,15.02,17.73,,47.59359,-54.27349
2018-12-12 21:50:00+00:00,37.0,37.0,12.19,13.95,,47.59359,-54.27349
2018-12-12 22:00:00+00:00,50.0,60.0,13.84,16.38,,47.59359,-54.27349
2018-12-12 22:10:00+00:00,48.0,54.0,13.95,15.73,,47.59359,-54.27349
2018-12-12 22:20:00+00:00,57.0,56.0,15.94,18.03,,47.59359,-54.27349
2018-12-12 22:30:00+00:00,53.0,50.0,16.43,18.92,,47.59359,-54.27349
2018-12-12 22:40:00+00:00,55.0,56.0,16.74,18.55,,47.59359,-54.27349
2018-12-12 22:50:00+00:00,50.0,53.0,16.62,18.84,,47.59359,-54.27349
2018-12-12 23:00:00+00:00,51.0,53.0,16.08,18.59,,47.59359,-54.27349
2018-12-12 23:10:00+00:00,61.0,60.0,15.53,16.79,,47.59359,-54.27349
2018-12-12 23:20:00+00:00,51.0,61.0,11.28,14.75,,47.59359,-54.27349
2018-12-12 23:30:00+00:00,55.0,55.0,14.77,17.75,,47.59359,-54.27349
2018-12-12 23:40:00+00:00,41.0,53.0,11.65,14.06,,47.59359,-54.27349
2018-12-12 23:50:00+00:00,36.0,40.0,10.08,11.38,,47.59359,-54.27349
